TITAN 3C TRANSTAGE DEB, 38694

Orbit data source: Space-Track

TITAN 3C TRANSTAGE DEB, 38694 is space debris in GEO originally from a launch on Thu, 26 Sep 1968 UTC launched from the Air Force Eastern Test Range (AFETR). Debris objects in space refer to the collection of defunct objects orbiting the Earth. Examples of debris include non-operational satellites, rocket bodies, and fragments generated from explosions, collisions, or faulty payload assembly.

Not visible in the next 10 days
Identifier
38694, 1968-081U
Orbit
GEO
Country
Flag of USUS
Related business
Manufacturer
Unknown
Mission
Spacecraft
Bus & Motor
Unknown
Mass
Unknown
Launch date (UTC)
1968-09-26 (57 years ago)
Launch vehicle
Unknown
Launch site
Air Force Eastern Test Range (AFETR)
Object type
Payload
Rocket body
Debris
Shape & HBR
Unknown shape, 1.1 m
Radar Cross Section
Medium (>0.1 m² and <1 m²)

Expand to show TLE details & history
Last TLE update: 1 day ago

TLE from 1 day ago
0 TITAN 3C TRANSTAGE DEB
1 38694U 68081U   25347.53873498 -.00000012  00000-0  00000-0 0  9995
2 38694   1.3955  67.9151 0083569  66.0494 294.0524  1.03500383 42144
Epoch: 2025-12-13T12:55Z
TLE epoch observation values (Epoch: 2025-12-13T12:55:46.702Z)
Latitude
-0°
Longitude
150.72591°
Altitude
34,765.516 km
Speed
3.118 km/s
True Right ascension
04h 28m 32s
True Declination
0° 00' 00"
Sunlit
Object was in daylight at epoch
Visualization orbit readout
Latitude
Unknown
Longitude
Unknown
Altitude
Unknown
Speed
Unknown
Apparent Right ascension
Unknown
Apparent Declination
Unknown
Sunlit
N/A
Visualization observer readout
Local Sidereal Time
13:01:01
Azimuth
Unknown
Elevation
Unknown
Doppler factor
Unknown
Orbital elements
Apogee altitude
35,251.213 km
Perigee altitude
34,561.194 km
Semi-major axis
41,284.34 km
Eccentricity
0.00836
Inclination
1.3955°
RAAN
67.9151°
Arg. of periapsis
66.0494°
True anomaly
293.17421°
Mean anomaly
294.0524°
Eccentric anomaly
293.61368°
Mean motion
0.25874 °/min
Orbital period
1,391.35 mins
BSTAR
0
Loading maneuver chart data...
Computing Atmospheric mass density...

Documentation

Showing up to 5 results
|